Regional Weather Roundup
Issued by NWS Burlington, VT

Current Version | Previous Version | Text Only | Print | Product List | Glossary Off
Versions: 1 2 3 4 5 6 7 8 9 10 11 12 13 14 15 16 17 18 19 20 21 22 23 24 25 26 27 28 29 30 31 32 33 34 35 36 37 38 39 40 41 42 43 44 45 46 47 48 49 50

000
ASUS41 KBTV 160630
RWRBTV
VERMONT REGIONAL WEATHER ROUNDUP
NATIONAL WEATHER SERVICE BURLINGTON VT
200 AM EDT MON OCT 16 2017

NOTE: "FAIR" INDICATES FEW OR NO CLOUDS BELOW 12,000 FEET WITH NO
SIGNIFICANT WEATHER AND/OR OBSTRUCTIONS TO VISIBILITY.

* THESE REPORTS ARE NOT UNDER NWS QUALITY CONTROL AND/OR DO NOT
  REPORT WEATHER SUCH AS PRECIPITATION AND FOG.

VTZ001>019-160700-
_____VERMONT_____


CITY           SKY/WX    TMP DP  RH WIND       PRES   REMARKS
BURLINGTON     MOCLDY    56  45  66 NW18G28   29.77R
6HR MIN TEMP:  56; 6HR MAX TEMP:  73; 6HR PCP: TRACE;

MONTPELIER     CLOUDY    62  52  69 W8G16     29.73R
6HR MIN TEMP:  62; 6HR MAX TEMP:  74; 6HR PCP: TRACE;

MORRISVILLE    CLOUDY    55  47  74 NW16G25   29.73R
6HR MIN TEMP:  55; 6HR MAX TEMP:  74; 6HR PCP:  0.02;

ST. JOHNSBURY*   N/A     63  55  75 MISG      29.65R
6HR MIN TEMP:  63; 6HR MAX TEMP:  71; 6HR PCP:  0.32;

LYNDONVILLE*   MOCLDY    57  49  74 W22G28    29.72R
6HR MIN TEMP:  61; 6HR MAX TEMP:  69;

MIDDLEBURY*    FAIR      60  50  69 CALM      29.75R
6HR MIN TEMP:  61; 6HR MAX TEMP:  71; 6HR PCP:  0.09;

RUTLAND*       PTCLDY    61  51  70 W13G20    29.75R
6HR MIN TEMP:  60; 6HR MAX TEMP:  73; 6HR PCP:  0.05;

SPRINGFIELD    CLOUDY    63  49  60 W8        29.74
6HR MIN TEMP:  62; 6HR MAX TEMP:  70; 6HR PCP: TRACE;

HIGHGATE*      CLOUDY    48  41  77 W13G22    29.80R
NEWPORT*       DRIZZLE   49  46  89 W14G24    29.74R
6HR MIN TEMP:  52; 6HR MAX TEMP:  72;

BENNINGTON     CLOUDY    58  51  78 W10G21    29.81S
6HR MIN TEMP:  58; 6HR MAX TEMP:  70; 6HR PCP:  0.29;

SUTTON*          N/A     57 N/A N/A MISG        N/A
ISLAND POND*     N/A     55 N/A N/A W17         N/A
GALLUP MILLS*    N/A     59 N/A N/A MISG        N/A
UNION VILLAGE*   N/A     61 N/A N/A MISG        N/A
MT. MANSFIELD*   N/A     41 N/A N/A W40G60      N/A  WCI  28

_____LAKE CHAMPLAIN_____


CITY           SKY/WX    TMP DP  RH WIND       PRES   REMARKS
BURTON ISLAND*   N/A     54  46  76 NW23        N/A
COLCHESTER RF*   N/A     55  46  71 NW24        N/A

$$

NYZ007-026>031-035-052-083-087-160700-
_____NORTHERN NEW YORK_____


CITY           SKY/WX    TMP DP  RH WIND       PRES   REMARKS
PLATTSBURGH    CLOUDY    52  42  69 NW14G21   29.80R
6HR MIN TEMP:  52; 6HR MAX TEMP:  70; 6HR PCP:  0.05;

SARANAC LAKE   CLOUDY    41  40  96 NW9       29.83R
6HR MIN TEMP:  41; 6HR MAX TEMP:  63; 6HR PCP: TRACE;

MASSENA        CLOUDY    47  38  71 NW14G29   29.90R
6HR MIN TEMP:  47; 6HR MAX TEMP:  69; 6HR PCP: TRACE;

OGDENSBURG*    CLOUDY    46  38  74 NW14      29.94R
6HR MIN TEMP:  46; 6HR MAX TEMP:  69;

STARK FALLS*     N/A     41 N/A N/A NW9         N/A
WATERTOWN      CLOUDY    47  41  80 NW9       29.94R
6HR MIN TEMP:  47; 6HR MAX TEMP:  65; 6HR PCP:  0.01;

FT DRUM        CLOUDY    44  39  80 N12G18    29.92R
6HR MIN TEMP:  44; 6HR MAX TEMP:  63; 6HR PCP:  0.04;

ALBANY         CLOUDY    58  48  69 W24G31    29.82R
6HR MIN TEMP:  58; 6HR MAX TEMP:  70; 6HR PCP:  0.20;


$$
NHZ002-005-011-160700-
_____NEW HAMPSHIRE_____


CITY           SKY/WX    TMP DP  RH WIND       PRES   REMARKS
LEBANON        CLOUDY    65  52  62 SW9G20    29.70R
6HR MIN TEMP:  64; 6HR MAX TEMP:  71; 6HR PCP:  0.01;

KEENE          CLOUDY    62  56  80 SW6       29.76R
6HR MIN TEMP:  61; 6HR MAX TEMP:  70; 6HR PCP:  0.03;

MT WASHINGTON  FOG       41  41 100 W72G83      N/A  VSB 0   WCI  25
6HR MIN TEMP:  40; 6HR MAX TEMP:  51; 6HR PCP:  0.08;

PLYMOUTH       MOCLDY    62  54  74 CALM      29.69S
6HR MIN TEMP:  61; 6HR MAX TEMP:  70;

WHITEFIELD     CLOUDY    64  52  64 SW12G18   29.65R
6HR MIN TEMP:  64; 6HR MAX TEMP:  73; 6HR PCP:  0.01;


$$

_____REGIONAL QUEBEC LOCATIONS_____


CITY           SKY/WX    TMP DP  RH WIND       PRES   REMARKS
MONTREAL       CLOUDY    46  37  71 W18G25    29.81R
QUEBEC CITY    MOCLDY    46  37  71 NW10G28   29.58R
SHERBROOKE     LGT RAIN  48  46  93 W25G37    29.70R FOG

_____REGIONAL ONTARIO LOCATIONS_____


CITY           SKY/WX    TMP DP  RH WIND       PRES   REMARKS
OTTAWA         CLOUDY    43  37  81 NW14G20   29.92R

______KEY______
VSB  - VISIBILITY IN MILES
WCI  - WIND CHILL INDEX
HX   - HEAT INDEX
$$
NNNN




USA.gov is the U.S. government's official web portal to all federal, state and local government web resources and services.